Regional Weather Roundup
Issued by NWS Charleston, SC

Current Version | Previous Version | Graphics & Text | Print | Product List | Glossary On
Versions: 1 2 3 4 5 6 7 8 9 10 11 12 13 14 15 16 17 18 19 20 21 22 23 24 25 26 27 28 29 30 31 32 33 34 35 36 37 38 39 40 41 42 43 44 45 46 47 48 49 50
000 ASUS42 KCHS 280127 RWRCHS REGIONAL WEATHER ROUNDUP NATIONAL WEATHER SERVICE CHARLESTON SC 900 PM EDT MON MAR 27 2017 NOTE: "FAIR" INDICATES FEW OR NO CLOUDS BELOW 12,000 FEET WITH NO SIGNIFICANT WEATHER AND/OR OBSTRUCTIONS TO VISIBILITY. NOT ALL STATIONS ARE QUALITY CONTROLLED. USE DATA WITH CAUTION... ESPECIALLY DEWPOINT OBSERVATIONS. SCZ027-030-031-034>040-042>050-280200- ...SOUTHEAST SOUTH CAROLINA... CITY SKY/WX TMP DP RH WIND PRES REMARKS N CHARLESTON PTCLDY 67 57 70 S10 30.02S WATERFRONT PRK N/A 67 62 84 S7 30.01S JOHNS ISLAND FAIR 66 63 88 S5 30.03S PINOPOLIS N/A 70 59 68 VRB3 29.92F MONCKS CORNER FAIR 66 55 68 S7 30.02R SUMMERVILLE FAIR 66 59 77 CALM 30.03R BEAUFORT MCAS MOCLDY 68 61 78 S7 30.02R BEAUFORT ARPT FAIR 66 59 77 S7 30.03R HILTON HEAD IS PTCLDY 66 61 82 S7 30.04R WALTERBORO CLOUDY 64 59 82 SE7 30.03R ALLENDALE FAIR 70 61 73 SE6 30.00R ...SOUTHERN MIDLANDS AND PEE DEE... CITY SKY/WX TMP DP RH WIND PRES REMARKS GEORGETOWN FAIR 63 57 82 S3 30.04S KINGSTREE FAIR 68 55 64 SE7 30.01R ORANGEBURG CLOUDY 70 60 70 S9 30.00R BARNWELL FAIR 73 63 68 S12 29.99S AIKEN CLOUDY 70 59 68 SE8 30.00S MANNING FAIR 66 59 77 S8 30.02R COLUMBIA MOCLDY 72 59 63 CALM 29.97R SUMTER CLEAR 71 60 67 S14 29.97R FLORENCE PTCLDY 69 60 73 S10 30.00R MYRTLE BEACH CLEAR 66 59 77 S13 30.04R N MYRTLE BEACH CLEAR 66 59 78 S9 30.04R $$ GAZ063-065-086>088-099>101-113>116-118-119-134>141-150-280200- ...SOUTHEAST GEORGIA... CITY SKY/WX TMP DP RH WIND PRES REMARKS SAVANNAH ARPT MOCLDY 68 57 68 S9 30.02R HUNTER AAF PTCLDY 67 62 82 CALM 30.00R FORT STEWART CLEAR 68 58 68 SE5 30.00R STATESBORO MOCLDY 71 63 74 SE8 30.01R SYLVANIA PTCLDY N/A N/A N/A S3 30.02R CLAXTON FAIR N/A N/A N/A E5 30.00S ...CSRA...CENTRAL AND FAR SOUTHEAST GEORGIA... CITY SKY/WX TMP DP RH WIND PRES REMARKS THOMSON MOCLDY 67 57 70 W6 30.00S AUGUSTA-BUSH CLOUDY 75 58 55 S7 29.95R AUGUSTA-DANIEL MOCLDY 77 54 44 S6 29.96S SWAINSBORO FAIR 70 59 68 SE7 29.99R VIDALIA CLOUDY 75 61 60 SE7 29.99R EASTMAN FAIR 68 50 53 CALM 30.00R HAZLEHURST MOCLDY 76 63 64 S7 29.98R ALMA CLOUDY 74 62 66 SE6 29.99R WAYCROSS PTCLDY 75 63 64 S9 30.00S JESUP MOCLDY 70 55 60 SE5 30.02R BAXLEY MOCLDY 73 64 73 SE5 30.00R BRUNSWICK CLEAR 70 63 78 SE5 30.04R SAINT SIMONS CLEAR 68 61 78 SE9 30.02S $$ SCZ027-028-034-036>038-045-046-048>050-GAZ119-141-280200- ...LAKE AND SUPPLEMENTAL COASTAL OBSERVATIONS... STATION/POSITION TIME TEMP WIND PRES WAVE SWELL AIR SEA DIR/SP/G HT/PER HT/PER/DIR (UTC) (F) (DEG/KT/KT) (MB) (FT/S) (FT/S/D) WINYAH BAY 0030 67 190/ 6 1017.0S LAKE MURRAY 0020 67 CALM 1014.2R ACE BASIN NERRS 0045 65 160/ 1 1016.0S FORT PULASKI 0100 67 64 180/ 4/ 8 1016.9 SAPELO ISLAND 0000 69 140/ 8 1017.0 $$ ANZ835-935-AMZ111-154-330-350-352-354-370-450-454-472-280200- ...C-MAN AND BUOY OBSERVATIONS... STATION/POSITION TIME TEMP WIND PRES WAVE SWELL AIR SEA DIR/SP/G HT/PER HT/PER/DIR (UTC) (F) (DEG/KT/KT) (MB) (FT/S) (FT/S/D) BUOY 41004 0050 72 73 160/ 10/ 12 1016.7R 4/10 3/140/10 BUOY 41008 0050 66 64 150/ 8/ 10 1016.2F 4/11 3/100/11 FOLLY BEACH CMAN 0100 65 180/ 6/ 7 1017.4S CAPERS NEARSHORE 0008 65 170/ 8/ 10 1016.6F FRIPP NEARSHORE 0108 65 62 170/ 8/ 10 1016.1S STATION/POSITION TIME TEMP WIND PRES WAVE SWELL AIR SEA DIR/SP/G HT/PER HT/PER/DIR (UTC) (F) (DEG/KT/KT) (MB) (FT/S) (FT/S/D) 5E ST. MARYS GA 0100 68 N/A 3/10 2/130/11 FRYING PAN BUOY 0050 72 76 180/ 10/ 14 1017.3S 4/10 3/150/10 BUOY 41025 0050 71 75 200/ 12/ 14 1017.8R 4/ 9 3/120/ 9 CAPE LOOKOUT NC 0100 66 170/ 9/ 9 1017.3F BUOY 41002 0050 69 72 100/ 8/ 10 1019.0R 6/10 5/100/10 BUOY 41010 NOT AVBL ST AUGUSTINE FL 0100 69 71 140/ 6/ 6 1017.9R $$

USA.gov is the U.S. government's official web portal to all federal, state and local government web resources and services.